TimeCST,TemperatureF,Dew PointF,Humidity,Sea Level PressureIn,VisibilityMPH,Wind Direction,Wind SpeedMPH,Gust SpeedMPH,PrecipitationIn,Events,Conditions,WindDirDegrees,DateUTC
12:15 AM,40.3,28.9,64,30.14,10.0,South,9.2,-,N/A,,Clear,190,2013-01-19 06:15:00
12:35 AM,40.3,29.3,65,30.14,10.0,South,8.1,-,N/A,,Clear,180,2013-01-19 06:35:00
12:55 AM,40.1,29.5,66,30.14,10.0,South,9.2,-,N/A,,Clear,180,2013-01-19 06:55:00
1:15 AM,39.9,29.5,66,30.14,10.0,South,10.4,-,N/A,,Clear,170,2013-01-19 07:15:00
1:35 AM,40.1,29.8,67,30.14,10.0,South,11.5,-,N/A,,Clear,180,2013-01-19 07:35:00
1:55 AM,41.2,29.1,62,30.14,10.0,South,13.8,-,N/A,,Clear,190,2013-01-19 07:55:00
2:15 AM,41.9,28.6,59,30.14,10.0,South,13.8,-,N/A,,Clear,190,2013-01-19 08:15:00
2:35 AM,41.9,28.4,59,30.13,10.0,South,13.8,-,N/A,,Clear,190,2013-01-19 08:35:00
2:55 AM,41.9,28.4,59,30.13,10.0,South,15.0,21.9,N/A,,Clear,180,2013-01-19 08:55:00
3:15 AM,41.4,28.2,60,30.12,10.0,South,15.0,-,N/A,,Clear,190,2013-01-19 09:15:00
3:35 AM,41.2,28.0,60,30.11,10.0,South,13.8,-,N/A,,Clear,190,2013-01-19 09:35:00
3:55 AM,41.7,27.7,58,30.10,10.0,South,15.0,-,N/A,,Clear,190,2013-01-19 09:55:00
4:15 AM,41.7,27.3,57,30.10,10.0,South,17.3,-,N/A,,Clear,190,2013-01-19 10:15:00
4:35 AM,41.9,27.1,56,30.09,10.0,South,17.3,-,N/A,,Clear,190,2013-01-19 10:35:00
4:55 AM,41.9,27.1,56,30.09,10.0,South,16.1,-,N/A,,Clear,190,2013-01-19 10:55:00
5:15 AM,41.4,27.1,57,30.08,10.0,South,16.1,-,N/A,,Clear,190,2013-01-19 11:15:00
5:35 AM,41.2,27.1,57,30.08,10.0,South,15.0,-,N/A,,Clear,190,2013-01-19 11:35:00
6:45 AM,41.0,26.6,57,30.07,10.0,South,18.4,-,N/A,,Clear,180,2013-01-19 12:45:00
7:50 AM,42.8,26.6,53,30.06,10.0,South,16.1,-,N/A,,Clear,190,2013-01-19 13:50:00
8:45 AM,44.6,26.6,49,30.06,10.0,South,16.1,-,N/A,,Clear,190,2013-01-19 14:45:00
9:45 AM,50.0,26.6,40,30.05,10.0,South,18.4,-,N/A,,Clear,190,2013-01-19 15:45:00
10:45 AM,53.6,28.4,38,30.02,10.0,SSW,20.7,-,N/A,,Clear,200,2013-01-19 16:45:00
11:50 AM,59.0,28.4,31,29.98,10.0,SSW,13.8,20.7,N/A,,Partly Cloudy,200,2013-01-19 17:50:00
12:50 PM,62.6,26.6,26,29.93,10.0,WSW,13.8,19.6,N/A,,Partly Cloudy,250,2013-01-19 18:50:00
1:50 PM,64.4,35.6,34,29.92,10.0,West,16.1,-,N/A,,Scattered Clouds,270,2013-01-19 19:50:00
2:50 PM,64.4,26.6,24,29.91,10.0,WSW,17.3,24.2,N/A,,Scattered Clouds,250,2013-01-19 20:50:00
3:50 PM,62.6,28.4,27,29.92,10.0,WSW,13.8,23.0,N/A,,Scattered Clouds,250,2013-01-19 21:50:00
4:50 PM,59.0,30.2,34,29.94,10.0,West,10.4,-,N/A,,Partly Cloudy,260,2013-01-19 22:50:00
6:50 PM,50.0,30.2,47,30.00,10.0,West,11.5,-,N/A,,Partly Cloudy,270,2013-01-20 00:50:00
7:50 PM,53.6,30.2,41,30.03,10.0,West,13.8,-,N/A,,Clear,280,2013-01-20 01:50:00
8:50 PM,51.8,30.2,44,30.05,10.0,West,13.8,-,N/A,,Clear,270,2013-01-20 02:50:00
9:15 PM,52.0,31.1,45,30.05,10.0,West,11.5,17.3,N/A,,Clear,270,2013-01-20 03:15:00
9:35 PM,49.8,31.3,49,30.06,10.0,West,9.2,-,N/A,,Clear,280,2013-01-20 03:35:00
9:50 PM,50.0,30.2,47,30.07,10.0,WNW,11.5,-,N/A,,Clear,290,2013-01-20 03:50:00
9:55 PM,49.6,30.7,48,30.07,10.0,WNW,12.7,-,N/A,,Clear,290,2013-01-20 03:55:00
10:15 PM,50.5,30.0,45,30.08,10.0,WNW,11.5,20.7,N/A,,Clear,300,2013-01-20 04:15:00
10:35 PM,48.6,30.2,49,30.09,10.0,WNW,11.5,-,N/A,,Clear,290,2013-01-20 04:35:00
10:55 PM,47.1,30.6,53,30.10,10.0,West,11.5,-,N/A,,Clear,280,2013-01-20 04:55:00
11:15 PM,45.7,30.2,55,30.10,10.0,West,10.4,-,N/A,,Clear,280,2013-01-20 05:15:00
11:35 PM,44.8,30.2,57,30.11,10.0,WNW,9.2,-,N/A,,Clear,290,2013-01-20 05:35:00
11:55 PM,43.7,30.7,60,30.11,10.0,WNW,11.5,-,N/A,,Clear,290,2013-01-20 05:55:00